METEOR 2-5 DEB, 35256

Orbit data source: Space-Track

METEOR 2-5 DEB, 35256 is space debris in LEO originally from a launch on Wed, 31 Oct 1979 UTC launched from the Plesetsk Missile And Space Complex (PKMTR). Debris objects in space refer to the collection of defunct objects orbiting the Earth. Examples of debris include non-operational satellites, rocket bodies, and fragments generated from explosions, collisions, or faulty payload assembly.

Loading next visibility...
Identifier
35256, 1979-095X
Orbit
LEO
Country
Flag of CISCIS
Related business
Manufacturer
Unknown
Mission
Spacecraft
Bus & Motor
Unknown
Mass
Unknown
Launch date (UTC)
1979-10-31 (46 years ago)
Launch vehicle
Unknown
Launch site
Plesetsk Missile And Space Complex (PKMTR)
Object type
Payload
Rocket body
Debris
Shape & HBR
Unknown shape, 0.1 m
Radar Cross Section
Small (<0.1 m²)

Expand to show TLE details & history
Last TLE update: 6 days ago

TLE from 6 days ago
0 METEOR 2-5 DEB
1 35256U 79095X   25287.92495583  .00009004  00000-0  27483-2 0  9999
2 35256  81.1886 352.9617 0019635 204.3065 155.7199 14.41736005613000
Epoch: 2025-10-14T22:11Z
TLE epoch observation values (Epoch: 2025-10-14T22:11:56.183Z)
Latitude
-0.00005°
Longitude
-3.7288°
Altitude
768.48 km
Speed
7.463 km/s
True Right ascension
23h 31m 50s
True Declination
0° 00' 00"
Sunlit
Object was in full shadow at epoch
Visualization orbit readout
Latitude
Unknown
Longitude
Unknown
Altitude
Unknown
Speed
Unknown
Apparent Right ascension
Unknown
Apparent Declination
Unknown
Sunlit
N/A
Visualization observer readout
Local Sidereal Time
17:53:17
Azimuth
Unknown
Elevation
Unknown
Doppler factor
Unknown
Orbital elements
Apogee altitude
763.899 km
Perigee altitude
735.907 km
Semi-major axis
7,128.04 km
Eccentricity
0.00196
Inclination
81.1886°
RAAN
352.9617°
Arg. of periapsis
204.3065°
True anomaly
155.81221°
Mean anomaly
155.7199°
Eccentric anomaly
155.76608°
Mean motion
3.60652 °/min
Orbital period
99.82 mins
BSTAR
0.0027483
Loading maneuver chart data...
Computing Atmospheric mass density...
Loading historical data...
Loading historical data...
Loading historical data...
Loading historical data...
Loading historical data...
Loading historical data...
Loading historical data...

Documentation

Showing up to 5 results
|